Location: Mercogliano
(40.9167°N, 14.7333°E)
Time: 04:09:14
(UTC+00:00)

Cosmos 1300 Rocket - Pass Details

Date: 18 September 2020
Orbit: 601 x 627 km, 82.5° (Epoch: 25 October)

Event Time Altitude Azimuth Distance (km) Brightness Sun altitude
Rises 18:14:28 0° 175° (S) 2,869 6.8 -13.9°
Reaches altitude 10° 18:16:42 10° 170° (S) 1,972 5.9 -14.3°
Maximum altitude 18:20:58 54° 94° (E) 757 3.6 -15.1°
Drops below altitude 10° 18:25:17 10° 17° (NNE) 2,002 6.2 -15.9°
Sets 18:27:34 0° 13° (NNE) 2,916 7.1 -16.3°
